Regional Weather Roundup
Issued by NWS

Home | Current Version | Previous Version | Graphics & Text | Print | Product List | Glossary On
Versions: 1 2 3 4 5 6 7 8 9 10 11 12 13 14 15 16 17 18 19 20 21 22 23 24 25 26 27 28 29 30 31 32 33 34 35 36 37 38 39 40 41 42 43 44 45 46 47 48 49 50
000
ASUS45 KTFX 230710
RWRMT
MONTANA REGIONAL WEATHER ROUNDUP
NATIONAL WEATHER SERVICE GREAT FALLS MT
100 AM MDT SAT MAY 23 2015

NOTE: "FAIR" INDICATES FEW OR NO CLOUDS BELOW 12000 FEET WITH NO
SIGNIFICANT WEATHER AND/OR OBSTRUCTIONS TO VISIBILITY.

MTZ001>007-043-230800-
WEST OF THE DIVIDE

CITY           SKY/WX    TMP DP  RH WIND       PRES   REMARKS
KALISPELL      MOSUNNY   59  35  40 N7        29.94R
MISSOULA       CLOUDY    63  35  35 SE8       29.93R
BUTTE          PTCLDY    45  39  79 SE5       30.00R
MULLAN PASS    CLOUDY    53  30  41 CALM      30.03R
DEER LODGE       N/A     48  39  71 NW6       30.02S
EUREKA           N/A     55  34  44 N3          N/A
HAMILTON         N/A     52  45  76 S3        29.95R
LIBBY            N/A     54  37  54 S6        29.95S
RONAN            N/A     64  36  35 E5        29.98R
$$

MTZ008-052>055-230800-
SOUTHWEST MONTANA

CITY           SKY/WX    TMP DP  RH WIND       PRES   REMARKS
BOZEMAN        CLOUDY    50  44  80 CALM      29.96S
DILLON         PTCLDY    46  41  82 NW3       29.96R
W YELLOWSTONE  CLOUDY    46  39  76 NE6       29.99S
THREE FORKS      N/A     49 -12   7 CALM      29.96R
TWIN BRIDGES     N/A     52  41  66 N8        29.95S
$$

MTZ009-010-012-014-046-048-049-054-230800-
EAST SLOPES AND CENTRAL MONTANA

CITY           SKY/WX    TMP DP  RH WIND       PRES   REMARKS
CUT BANK       CLEAR     47  35  63 CALM      30.02R
GREAT FALLS    CLOUDY    55  42  61 E18G28    29.98S
MALMSTROM AFB  SHOWER    53  46  77 E15       30.01R
HELENA         MOCLDY    54  42  64 SW6       29.95R
CONRAD           N/A     49  45  86 E2        30.02S
$$

MTZ011-013-016-021-045-047-050-051-230800-
NORTH CENTRAL MONTANA

CITY           SKY/WX    TMP DP  RH WIND       PRES   REMARKS
HAVRE          CLOUDY    56  47  71 E7        29.98R
LEWISTOWN      CLOUDY    51  48  89 SW5       29.99S
N BAR RANCH    CLOUDY    50  48  93 CALM      30.02S
CHINOOK          N/A     57  46  67 E3        29.99R
FORT BENTON      N/A     57  46  67 S7        29.98F
$$

MTZ017>020-022>027-061-062-230800-
NORTHEAST MONTANA

CITY           SKY/WX    TMP DP  RH WIND       PRES   REMARKS
GLASGOW        CLOUDY    58  42  55 E10       30.01R
JORDAN           N/A     58  45  62 SE8       29.99S
SIDNEY         PTCLDY    52  37  58 CALM      30.08R
WOLF POINT     CLOUDY    57  42  57 NE10      30.04R
MALTA            N/A     57  44  62 CALM      29.96R
PLENTYWOOD       N/A     55  36  47 SE7       30.08S
POPLAR           N/A     55  39  54 E8        30.05S
$$

MTZ028>42-056>058-230800-
SOUTHCENTRAL AND SOUTHEAST MONTANA

CITY           SKY/WX    TMP DP  RH WIND       PRES   REMARKS
BAKER          PTCLDY    46  39  76 SE9       30.06S
BILLINGS       PTCLDY    51  45  79 NE6       29.95S
LIVINGSTON     CLOUDY    50  47  89 E6        29.96F
MILES CITY     MOCLDY    56  41  57 SE15      30.00R
BIG TIMBER       N/A     50  48  93 CALM      29.99R
FORSYTH          N/A     54  45  71 E5        29.97S
LAUREL           N/A     52  42  68 N5        29.94R
ROUNDUP          N/A     54  42  63 CALM      29.90S
$$

REGIONAL REPORTS...DAKOTAS

CITY           SKY/WX    TMP DP  RH WIND       PRES   REMARKS
WILLISTON      PTCLDY    57  38  48 S3        30.09R
MINOT          MOCLDY    60  40  47 SW6       30.10R
DICKINSON      PTCLDY    43  35  73 S8        30.09R
BEACH          FAIR      46  37  71 SE9       30.08S
CROSBY         FAIR      54  39  58 S8        30.10R
WATFORD CITY   FAIR      50  34  53 SE10      30.08S
BISMARCK       CLEAR     50  41  71 E3        30.13R
GRAND FORKS    CLEAR     54  42  64 SE6       30.12S
FARGO          CLEAR     55  38  52 S10       30.14R
BUFFALO SD       N/A     44  39  82 SE12      30.00F
RAPID CITY     CLOUDY    48  44  86 S12       30.06F
$$

REGIONAL REPORTS...WYOMING/IDAHO/WASHINGTON

CITY           SKY/WX    TMP DP  RH WIND       PRES   REMARKS
GILLETTE       CLOUDY    47  42  83 SE17      30.01S
SHERIDAN       MOCLDY    49  43  80 SE17G23   29.94F
BUFFALO WY     MOCLDY    45  44  97 S15       29.99F
CODY           CLOUDY    48  48 100 N3        29.96S
YELLOWSTONE LA   N/A     37  36  96 CALM      30.04R
IDAHO FALLS    LGT RAIN  51  48  89 S12       29.92S
SALMON         CLOUDY    52  46  82 N3        29.94S
BOISE          MOCLDY    60  50  69 W9        29.86S
SPOKANE        CLOUDY    61  48  62 SW3       29.90R
$$

REGIONAL REPORTS...ALBERTA

CITY           SKY/WX    TMP DP  RH WIND       PRES   REMARKS
EDMONTON       CLEAR     52  32  46 E2        30.04R
CALGARY        CLEAR     50  27  40 N6        30.07R
LETHBRIDGE     CLEAR     45  36  70 SW5       30.02R
MEDICINE HAT   CLEAR     52  36  54 E3        30.02R
$$

REGIONAL REPORTS...SASKATCHEWAN

CITY           SKY/WX    TMP DP  RH WIND       PRES   REMARKS
SWIFT CURRENT  CLOUDY    52  34  50 SE8       30.05S
SASKATOON      CLEAR     52  34  50 W5        30.05S
$$



USA.gov is the U.S. government's official web portal to all federal, state and local government web resources and services.